• In United Kingdom
  • List of Countries
  • For 7 days
  • Water Temperature
  • Satellite Maps
  • Weather Map
  • Weather Widgets
  • user-avatar
    Login

    Hourly Weather Giurgiulesti

    Today, 24 September, Monday

    Time Temperature Precipitation Wind Pressure Humidity
    00:00 +17°C° 0 mm 4 mps 759 mmHg 73%
    01:00 +17°C° 0 mm 4 mps 759 mmHg 78%
    02:00 +15°C° 0 mm 4 mps 758 mmHg 85%
    03:00 +17°C° 0 mm 4 mps 757 mmHg 86%
    04:00 +16°C° 0 mm 5 mps 757 mmHg 88%
    05:00 +16°C° 0 mm 5 mps 756 mmHg 90%
    06:00 +17°C° 0 mm 6 mps 755 mmHg 85%
    07:00 +20°C° 0 mm 6 mps 755 mmHg 81%
    08:00 +21°C° 0 mm 6 mps 754 mmHg 73%
    09:00 +24°C° 0 mm 7 mps 754 mmHg 63%
    10:00 +27°C° 0 mm 7 mps 753 mmHg 52%
    11:00 +30°C° 0 mm 7 mps 753 mmHg 42%
    12:00 +32°C° 0 mm 7 mps 753 mmHg 39%
    13:00 +33°C° 0 mm 7 mps 753 mmHg 35%
    14:00 +34°C° 0 mm 7 mps 753 mmHg 32%
    15:00 +28°C° 0.1 mm 8 mps 754 mmHg 43%
    16:00 +22°C° 0.1 mm 10 mps 754 mmHg 55%
    17:00 +16°C° 0.1 mm 11 mps 755 mmHg 67%
    18:00 +13°C° 1.2 mm 10 mps 756 mmHg 70%
    19:00 +12°C° 1.2 mm 9 mps 757 mmHg 73%
    20:00 +11°C° 1.2 mm 8 mps 759 mmHg 76%
    21:00 +11°C° 1.2 mm 7 mps 760 mmHg 73%
    22:00 +11°C° 1.2 mm 6 mps 761 mmHg 69%
    23:00 +12°C° 1.2 mm 5 mps 762 mmHg 66%

    Tomorrow, 25 September, Tuesday

    Time Temperature Precipitation Wind Pressure Humidity
    00:00 +12°C° 0 mm 5 mps 762 mmHg 65%
    01:00 +12°C° 0 mm 4 mps 762 mmHg 63%
    02:00 +12°C° 0 mm 4 mps 762 mmHg 61%
    03:00 +11°C° 0 mm 3 mps 762 mmHg 64%
    04:00 +10°C° 0 mm 3 mps 762 mmHg 67%
    05:00 +10°C° 0 mm 2 mps 762 mmHg 69%
    06:00 +11°C° 0 mm 4 mps 763 mmHg 64%
    07:00 +10°C° 0 mm 5 mps 763 mmHg 59%
    08:00 +11°C° 0 mm 6 mps 764 mmHg 54%
    09:00 +13°C° 0 mm 6 mps 764 mmHg 48%
    10:00 +14°C° 0 mm 6 mps 764 mmHg 43%
    11:00 +15°C° 0 mm 7 mps 765 mmHg 37%
    12:00 +16°C° 0 mm 7 mps 765 mmHg 35%
    13:00 +16°C° 0 mm 7 mps 765 mmHg 34%
    14:00 +16°C° 0 mm 7 mps 765 mmHg 32%
    15:00 +16°C° 0 mm 7 mps 765 mmHg 32%
    16:00 +16°C° 0 mm 6 mps 765 mmHg 32%
    17:00 +15°C° 0 mm 6 mps 766 mmHg 32%
    18:00 +14°C° 0 mm 6 mps 766 mmHg 36%
    19:00 +13°C° 0 mm 5 mps 767 mmHg 40%
    20:00 +12°C° 0 mm 4 mps 768 mmHg 43%
    21:00 +11°C° 0 mm 4 mps 768 mmHg 46%
    22:00 +11°C° 0 mm 4 mps 769 mmHg 49%
    23:00 +10°C° 0 mm 4 mps 769 mmHg 52%

    Day after tomorrow, 26 September, Wednesday

    Time Temperature Precipitation Wind Pressure Humidity
    00:00 +9°C° 0 mm 5 mps 769 mmHg 54%
    01:00 +8°C° 0 mm 5 mps 770 mmHg 56%
    02:00 +8°C° 0 mm 5 mps 770 mmHg 58%
    03:00 +7°C° 0 mm 5 mps 770 mmHg 60%
    04:00 +7°C° 0 mm 5 mps 770 mmHg 62%
    05:00 +7°C° 0 mm 5 mps 771 mmHg 65%
    06:00 +7°C° 0 mm 5 mps 771 mmHg 63%
    07:00 +8°C° 0 mm 6 mps 771 mmHg 61%
    08:00 +9°C° 0 mm 7 mps 772 mmHg 59%
    09:00 +10°C° 0 mm 7 mps 772 mmHg 53%
    10:00 +11°C° 0 mm 7 mps 772 mmHg 47%
    11:00 +14°C° 0 mm 7 mps 772 mmHg 41%
    12:00 +14°C° 0 mm 7 mps 772 mmHg 38%
    13:00 +15°C° 0 mm 7 mps 771 mmHg 36%
    14:00 +15°C° 0 mm 7 mps 771 mmHg 33%
    15:00 +15°C° 0 mm 7 mps 771 mmHg 33%
    16:00 +14°C° 0 mm 6 mps 771 mmHg 34%
    17:00 +14°C° 0 mm 6 mps 771 mmHg 34%
    18:00 +13°C° 0 mm 5 mps 771 mmHg 38%
    19:00 +11°C° 0 mm 4 mps 771 mmHg 41%
    20:00 +10°C° 0 mm 3 mps 772 mmHg 45%
    21:00 +9°C° 0 mm 3 mps 772 mmHg 47%
    22:00 +9°C° 0 mm 3 mps 772 mmHg 49%
    23:00 +8°C° 0 mm 2 mps 772 mmHg 50%

    27 September, Thursday

    Time Temperature Precipitation Wind Pressure Humidity
    00:00 +8°C° 0 mm 2 mps 772 mmHg 51%
    01:00 +7°C° 0 mm 2 mps 771 mmHg 53%
    02:00 +8°C° 0 mm 1 mps 771 mmHg 54%
    03:00 +8°C° 0 mm 1 mps 771 mmHg 54%
    04:00 +7°C° 0 mm 1 mps 771 mmHg 55%
    05:00 +6°C° 0 mm 0 mps 770 mmHg 56%
    06:00 +8°C° 0 mm 1 mps 770 mmHg 52%
    07:00 +10°C° 0 mm 1 mps 770 mmHg 48%
    08:00 +11°C° 0 mm 1 mps 770 mmHg 44%
    09:00 +13°C° 0 mm 1 mps 770 mmHg 40%
    10:00 +14°C° 0 mm 2 mps 770 mmHg 36%
    11:00 +16°C° 0 mm 2 mps 769 mmHg 32%
    12:00 +17°C° 0 mm 2 mps 769 mmHg 30%
    13:00 +18°C° 0 mm 2 mps 768 mmHg 27%
    14:00 +19°C° 0 mm 2 mps 767 mmHg 24%
    15:00 +19°C° 0 mm 2 mps 767 mmHg 25%
    16:00 +20°C° 0 mm 1 mps 766 mmHg 26%
    17:00 +20°C° 0 mm 1 mps 766 mmHg 27%
    18:00 +18°C° 0 mm 1 mps 766 mmHg 28%
    19:00 +16°C° 0 mm 1 mps 766 mmHg 30%
    20:00 +15°C° 0 mm 1 mps 766 mmHg 32%
    21:00 +14°C° 0 mm 1 mps 766 mmHg 33%
    22:00 +14°C° 0 mm 1 mps 766 mmHg 34%
    23:00 +13°C° 0 mm 1 mps 766 mmHg 35%

    28 September, Friday

    Time Temperature Precipitation Wind Pressure Humidity
    00:00 +13°C° 0 mm 1 mps 765 mmHg 35%
    01:00 +13°C° 0 mm 1 mps 765 mmHg 36%
    02:00 +13°C° 0 mm 2 mps 765 mmHg 36%
    03:00 +13°C° 0 mm 2 mps 765 mmHg 37%
    04:00 +12°C° 0 mm 2 mps 764 mmHg 38%
    05:00 +12°C° 0 mm 2 mps 764 mmHg 39%
    06:00 +14°C° 0 mm 2 mps 764 mmHg 39%
    07:00 +15°C° 0 mm 2 mps 764 mmHg 39%
    08:00 +16°C° 0 mm 3 mps 764 mmHg 39%
    09:00 +18°C° 0 mm 3 mps 764 mmHg 39%
    10:00 +20°C° 0 mm 3 mps 763 mmHg 40%
    11:00 +22°C° 0 mm 3 mps 763 mmHg 40%
    12:00 +24°C° 0 mm 2 mps 762 mmHg 39%
    13:00 +24°C° 0 mm 2 mps 762 mmHg 38%
    14:00 +25°C° 0 mm 2 mps 761 mmHg 37%
    15:00 +25°C° 0 mm 2 mps 761 mmHg 38%
    16:00 +25°C° 0 mm 2 mps 760 mmHg 40%
    17:00 +25°C° 0 mm 1 mps 760 mmHg 41%
    18:00 +23°C° 0 mm 1 mps 760 mmHg 45%
    19:00 +21°C° 0 mm 1 mps 760 mmHg 49%
    20:00 +19°C° 0 mm 1 mps 760 mmHg 54%
    21:00 +19°C° 0 mm 1 mps 760 mmHg 55%
    22:00 +18°C° 0 mm 1 mps 760 mmHg 56%
    23:00 +16°C° 0 mm 1 mps 760 mmHg 57%

    29 September, Saturday

    Time Temperature Precipitation Wind Pressure Humidity
    00:00 +16°C° 0 mm 1 mps 759 mmHg 59%
    01:00 +16°C° 0 mm 1 mps 759 mmHg 60%
    02:00 +15°C° 0 mm 1 mps 759 mmHg 61%
    03:00 +15°C° 0 mm 1 mps 759 mmHg 62%
    04:00 +14°C° 0 mm 0 mps 758 mmHg 63%
    05:00 +13°C° 0 mm 0 mps 758 mmHg 64%
    06:00 +14°C° 0 mm 0 mps 758 mmHg 61%
    07:00 +16°C° 0 mm 0 mps 758 mmHg 57%
    08:00 +17°C° 0 mm 0 mps 758 mmHg 54%
    09:00 +19°C° 0 mm 0 mps 758 mmHg 50%
    10:00 +20°C° 0 mm 0 mps 758 mmHg 46%
    11:00 +22°C° 0 mm 0 mps 758 mmHg 41%
    12:00 +23°C° 0 mm 0 mps 758 mmHg 40%
    13:00 +23°C° 0 mm 0 mps 757 mmHg 38%
    14:00 +24°C° 0 mm 0 mps 757 mmHg 36%
    15:00 +24°C° 0 mm 0 mps 757 mmHg 37%
    16:00 +25°C° 0 mm 1 mps 757 mmHg 39%
    17:00 +25°C° 0 mm 1 mps 757 mmHg 40%
    18:00 +22°C° 0 mm 3 mps 758 mmHg 48%
    19:00 +20°C° 0 mm 6 mps 759 mmHg 56%
    20:00 +17°C° 0 mm 8 mps 760 mmHg 64%
    21:00 +15°C° 0.1 mm 9 mps 760 mmHg 66%
    22:00 +13°C° 0.1 mm 9 mps 761 mmHg 69%
    23:00 +11°C° 0.1 mm 10 mps 762 mmHg 71%
    Show more